Location: Crystal Heights
(28.7578°N, 81.3342°W)
Time: 04:33:47
(UTC+00:00)

Daily predictions for brighter satellites

Satellite Brightness Start Highest point End
(mag) Time Altitude Azimuth Time Altitude Azimuth Time Altitude Azimuth
STARLINK-1201 4.3 00:34:50 10° SW 00:38:55 61° NW 00:43:00 10° NE
ARGOS 3.9 00:34:13 10° SE 00:39:03 36° ENE 00:43:56 10° N
Cosmos 1733 Rocket 3.8 00:36:00 10° NNE 00:39:57 33° E 00:43:51 10° SE
Cosmos 1812 4.3 00:39:04 10° SSW 00:42:41 40° W 00:46:19 10° N
Cosmos 1943 3.7 00:37:15 10° NNW 00:42:50 64° WSW 00:48:23 10° S
STARLINK-1170 4.1 00:38:55 10° NNW 00:42:55 47° NE 00:46:55 10° ESE
CZ-2C R/B 3.5 00:40:59 10° NE 00:45:53 31° E 00:50:46 10° SSE
NOSS 2-3 (D) 3.6 00:43:43 10° S 00:47:42 49° ESE 00:51:54 10° NE
STARLINK-1150 3.9 00:43:52 10° NNW 00:47:55 54° NE 00:51:58 10° SE
ASTRO E2 4.4 00:45:43 10° S 00:48:01 15° SSE 00:50:21 10° ESE
Cosmos 1666 3.3 00:45:08 10° NNE 00:48:43 37° E 00:52:16 10° SSE
STARLINK-1151 3.8 00:48:48 10° NW 00:52:54 61° NE 00:56:49 11° SE
VEP-3 4.3 00:47:11 10° SW 00:55:54 22° S 01:00:20 11° ESE
STARLINK-1202 4.5 00:52:48 10° S 00:56:19 27° SE 00:59:51 10° ENE
USA 186 1.7 00:54:54 11° SE 00:56:59 34° ENE 00:59:16 10° N
STARLINK-1133 3.7 00:53:44 10° NW 00:57:52 69° NE 01:01:35 12° SE
USA 229 DEB 4.2 00:51:34 10° SW 00:57:54 63° WNW 01:04:31 10° NNE
USA 229 4.2 00:51:41 10° SW 00:58:01 64° WNW 01:04:37 10° NNE
IRS-1A Rocket 4.5 00:53:21 10° SSE 00:59:07 61° ENE 01:04:47 10° N
HJ-1C 4.4 00:55:55 10° S 00:59:07 47° W 01:02:18 10° NNW
Delta 198 3.8 00:54:53 10° WSW 00:59:21 46° S 01:02:50 12° ESE
Cosmos 2278 Rocket 3.2 00:57:39 10° SSE 01:02:06 24° ESE 01:06:34 10° NE
STARLINK-1139 3.6 00:58:42 10° NW 01:02:51 78° NE 01:06:23 14° SE
Resurs 01 Rocket 3.6 01:01:20 10° E 01:03:24 13° ENE 01:05:28 10° NE
NOSS 3-1 (C) 4.5 01:00:05 10° SW 01:05:04 44° WNW 01:10:38 10° NNE
STARLINK-1246 4.2 01:02:26 10° SSW 01:06:12 35° SE 01:09:59 10° ENE
Cosmos 1844 Rocket 3.9 01:01:10 10° SW 01:06:35 47° WNW 01:12:02 10° N
H-2A R/B 2.0 01:01:52 10° SSE 01:06:49 89° WSW 01:11:54 10° NNW
NOSS 3-1 (A) 3.3 01:02:08 10° SSW 01:07:19 79° WNW 01:13:07 10° NNE
STARLINK-1174 3.6 01:03:40 10° NW 01:07:49 88° NE 01:11:10 15° SE
Cosmos 44 Rocket 4.4 01:04:21 10° N 01:08:39 29° ENE 01:11:57 15° ESE
Cosmos 1703 Rocket 4.1 01:05:25 10° SSE 01:09:24 37° E 01:13:23 10° NNE
Delta 128 4.2 01:03:30 10° W 01:10:07 84° S 01:15:24 11° E
STARLINK-1224 4.0 01:07:18 10° SSW 01:11:10 40° SE 01:15:02 10° ENE
STARLINK-1149 3.6 01:08:36 10° NW 01:12:45 82° SW 01:15:54 17° SE
Cosmos 1607 4.3 01:07:32 10° NNW 01:13:49 53° ENE 01:18:49 16° SE
Cosmos 1536 2.8 01:11:04 10° N 01:15:08 89° W 01:19:12 10° S
Cosmos 1371 Rocket 4.0 01:10:03 10° S 01:15:12 59° ESE 01:20:21 10° NNE
STARLINK-1225 3.8 01:12:10 10° SSW 01:16:07 45° SE 01:20:04 10° NE
STARLINK-1180 3.7 01:13:39 10° NW 01:17:46 72° SW 01:20:44 18° SSE
NOSS 2-3 (C) 3.9 01:14:15 10° SW 01:18:21 64° WNW 01:22:46 10° NNE
SJ-6B 2.7 01:15:54 13° SSE 01:19:08 66° ENE 01:22:50 10° N
Orbus 7S 3.8 01:10:28 10° W 01:19:13 76° S 01:21:31 20° ESE
STARLINK-1230 3.7 01:17:04 10° SSW 01:21:05 52° SE 01:25:05 10° NE
CZ-2C R/B 3.6 01:16:39 10° S 01:21:49 62° W 01:27:19 10° NNW
STARLINK-1153 3.9 01:18:38 10° NW 01:22:43 63° SW 01:25:30 19° SSE
Cosmos 389 Rocket 2.3 01:19:39 10° S 01:23:04 83° E 01:26:32 10° N
Cosmos 2034 Rocket 4.2 01:17:27 10° N 01:23:26 52° E 01:28:22 15° SSE
NOSS 3 (A) 4.2 01:22:43 10° SSW 01:25:33 60° ESE 01:28:10 10° NE
Ariane Rocket 3.3 01:20:44 10° S 01:25:44 67° WSW 01:30:47 10° NNW
STARLINK-1243 3.6 01:21:59 10° SSW 01:26:02 59° SE 01:30:06 10° NE
STARLINK-1132 4.1 01:23:39 10° NW 01:27:41 55° SW 01:30:18 20° SSE
Cosmos 1816 Rocket 4.4 01:21:37 10° S 01:27:43 69° E 01:33:47 10° N
Meteor 1-18 Rocket 4.2 01:22:29 10° S 01:27:55 60° E 01:33:25 10° NNE
Orbus 7S 3.4 01:25:48 10° WSW 01:28:28 48° SSE 01:32:03 17° E
Hubble Space Telescope 0.7 01:24:42 10° W 01:28:51 88° S 01:31:25 22° E
Cosmos 1908 Rocket 3.9 01:26:18 10° N 01:30:37 48° E 01:32:58 24° SE
STARLINK-1236 3.5 01:26:56 10° SSW 01:31:01 68° SE 01:35:08 10° NE
Cosmos 1513 Rocket 4.5 01:25:00 10° N 01:31:06 87° W 01:37:16 10° S
STARLINK-1177 4.3 01:28:40 10° NW 01:32:39 48° SW 01:35:05 21° SSE
Cosmos 2251 Rocket 3.8 01:28:35 10° NNW 01:33:46 67° WSW 01:38:29 12° S
STARLINK-1167 4.5 01:33:41 10° NW 01:37:35 42° SW 01:39:51 22° S
SEDSat Delta rocket 4.2 01:32:19 10° W 01:39:08 73° N 01:44:10 18° E
Resurs 1-3 3.8 01:37:25 28° SE 01:39:31 54° ENE 01:43:48 10° N
ASTEX 1 3.4 01:35:36 11° S 01:40:13 82° W 01:45:07 10° N
STARLINK-1269 3.5 01:36:48 10° SW 01:40:55 87° SE 01:45:04 10° NE
STARLINK-1157 3.3 01:40:12 10° NNW 01:43:26 55° NE 01:44:03 45° E
Cosmos 2056 Rocket 3.4 01:38:29 10° SSW 01:43:36 84° WNW 01:48:43 10° NNE
Meteor 2-4 Rocket 4.1 01:41:25 27° SE 01:43:38 38° E 01:48:34 10° NNE
Cosmos 1464 Rocket 4.4 01:38:30 10° NNW 01:44:49 68° W 01:51:08 10° S
GOES 2 Rocket 4.1 01:36:53 10° W 01:45:04 78° S 01:48:40 27° ESE
STARLINK-1200 3.6 01:41:48 10° SW 01:45:55 83° NW 01:50:04 10° NE
COSMOS 2406 4.5 01:44:02 10° N 01:48:41 25° ENE 01:50:17 22° E
STARLINK-1192 3.8 01:46:47 10° SW 01:50:54 73° NW 01:55:02 10° NE
Cosmos 1743 2.5 01:47:13 10° N 01:51:01 79° E 01:52:08 44° SSE
Okean 3 4.1 01:51:40 35° E 01:51:44 35° E 01:55:39 10° NNE
Centaur AC-125 3.5 01:48:56 10° W 01:52:33 75° S 02:05:39 13° E
GPS 2-04 Rocket1 2.7 01:50:29 10° WSW 01:54:00 67° NNW 01:55:48 27° NE
Centaur D-1A AC-32 3.6 01:32:00 10° W 01:54:05 60° SSW 01:56:36 32° SE
STARLINK-1141 4.3 01:50:58 10° NNW 01:54:53 40° NE 01:55:46 35° ENE
STARLINK-1244 4.0 01:51:47 10° SW 01:55:53 64° NW 01:59:59 10° NE
STARLINK-1140 4.1 01:55:54 10° NNW 01:59:53 45° NE 02:00:34 41° ENE
STARLINK-1138 4.2 01:56:47 10° SW 02:00:50 57° NW 02:04:54 10° NNE
H-2A R/B 2.1 01:59:36 10° W 02:02:22 50° SSW 02:03:58 37° SE
Cosmos 1634 Rocket 4.3 01:57:22 10° N 02:03:26 47° E 02:05:16 37° SE
STARLINK-1156 3.9 02:00:50 10° NNW 02:04:52 51° NE 02:05:21 48° ENE
STARLINK-1143 4.5 02:01:48 10° WSW 02:05:49 50° NW 02:09:50 10° NNE
STARLINK-1148 3.7 02:05:46 10° NNW 02:09:50 58° NE 02:10:07 56° ENE
Okean 1-7 4.3 02:06:04 10° SSW 02:10:03 38° W 02:14:03 10° NNW
Cosmos 1452 Rocket 3.5 02:13:27 52° SE 02:14:20 60° ESE 02:19:32 10° NNE
STARLINK-1158 3.6 02:10:43 10° NW 02:14:50 66° NE 02:14:55 66° NE
OAO 3 Copernicus 4.3 02:10:27 10° WNW 02:15:27 63° SSW 02:16:06 57° S
Cosmos 1420 Rocket 4.0 02:15:15 21° SSW 02:18:50 79° WNW 02:24:03 10° NNE
STARLINK-1162 3.6 02:15:41 10° NW 02:19:42 74° NNE 02:19:42 74° NNE
Cosmos 2082 Rocket 4.0 02:17:44 10° NNE 02:21:19 17° ENE 02:21:36 17° ENE
Cosmos 407 Rocket 3.5 02:18:30 10° NNW 02:23:52 87° WSW 02:24:56 59° S
Cosmos 1833 Rocket 3.7 02:20:28 10° N 02:25:23 31° ENE 02:25:34 31° ENE
Cosmos 332 Rocket 4.2 02:28:28 50° ENE 02:28:28 50° ENE 02:32:24 10° NNE
Meteor 1-4 Rocket 4.2 02:27:29 25° WSW 02:28:19 29° W 02:31:22 10° NNW
Cosmos 1975 3.0 02:24:57 10° NNW 02:28:48 66° WNW 02:28:48 66° WNW
Aureole 1 Rocket 3.5 02:24:48 10° NNW 02:29:39 83° ENE 02:30:36 63° SSE
STARLINK-1159 3.8 02:25:36 10° NW 02:29:15 68° NW 02:29:15 68° NW
Cosmos 2221 Rocket 3.6 02:29:37 73° SW 02:29:55 78° W 02:34:27 10° N
STARLINK-1171 4.1 02:30:37 10° NW 02:34:04 58° WNW 02:34:04 58° WNW
Meteor 2-9 Rocket 4.2 02:31:58 10° NNW 02:37:17 71° W 02:38:11 58° SSW
Resurs 01 Rocket 2.6 02:38:50 38° WSW 02:39:28 40° W 02:43:40 10° NNW
STARLINK-1155 4.4 02:35:35 10° NW 02:38:49 50° WNW 02:38:49 50° WNW
SPOT 1/Viking Rocket 3.8 02:42:36 53° NE 02:42:36 53° NE 02:47:10 10° N
ATLAS 3B CENTAUR R/B 2.9 02:29:11 10° WSW 02:42:36 64° SSE 02:43:51 57° SE
Cosmos 2278 Rocket 3.8 02:40:52 10° SW 02:45:55 33° WNW 02:51:00 10° N
Milstar 3 Cent rocket 4.2 02:37:47 10° SW 02:46:34 47° SE 03:05:03 10° ENE
Cosmos 1190 Rocket 4.2 02:42:54 10° NNW 02:48:02 60° WSW 02:48:19 59° WSW
Cosmos 1140 Rocket 3.7 02:46:18 10° NNW 02:51:26 63° WSW 02:51:29 63° WSW
Sich 1 Rocket 4.3 02:47:06 10° NNW 02:51:20 51° W 02:51:20 51° W
ERS-1 Rocket 3.7 03:00:13 45° NNE 03:00:13 45° NNE 03:03:56 10° N
Terra 3.5 03:01:35 25° NNE 03:01:35 25° NNE 03:04:02 10° N
Cosmos 2142 Rocket 4.5 02:56:52 10° N 03:02:59 72° W 03:03:29 68° SW
Cosmos 909 Rocket 4.3 02:57:01 10° NNW 03:03:57 60° WSW 03:04:37 57° SW
Okean 2 Rocket 4.2 03:00:37 10° NNW 03:03:40 42° NNW 03:03:40 42° NNW
Hubble Space Telescope 3.3 03:05:56 10° W 03:06:44 15° W 03:06:44 15° W
Spot 2 Rocket 4.3 03:11:18 46° W 03:11:18 46° W 03:15:39 10° NNW
Nadezhda 4 Rocket 4.0 03:14:13 69° NNE 03:14:13 69° NNE 03:19:36 10° N
Lacrosse 5 3.7 03:14:38 10° N 03:17:49 23° NNE 03:17:49 23° NNE
SEDSat Delta rocket 4.5 03:19:14 10° WNW 03:24:16 50° W 03:24:16 50° W
COSMOS 2406 4.5 03:27:49 10° NW 03:32:21 33° W 03:32:21 33° W
H-2A ROCKET BODY 3.9 03:31:12 10° WSW 03:37:48 71° SSE 04:19:19 10° E
SPOT 5 4.4 03:46:55 34° NW 03:46:55 34° NW 03:50:07 10° NNW
Cosmos 2082 Rocket 3.6 04:00:08 10° NNW 04:03:27 33° NW 04:03:27 33° NW
Cosmos 2369 Rocket 3.9 04:13:14 27° NNE 04:13:14 27° NNE 04:15:42 10° NNE
Cosmos 1943 Rocket 3.8 04:14:47 30° N 04:14:47 30° N 04:17:42 10° N
CENTAUR R/B 4.2 04:52:41 10° N 05:00:20 37° NE 05:01:10 36° ENE
ATLAS 2AS CENTAUR R/B 3.7 05:17:30 49° NW 05:17:30 49° NW 05:24:29 10° NNE
CZ-4C R/B 4.3 06:25:54 17° ENE 06:25:54 17° ENE 06:27:19 10° NE
Cosmos 1980 Rocket 4.2 06:48:47 19° E 06:48:47 19° E 06:51:42 10° NE
ATLAS 3B R/B 3.2 06:42:18 10° NNW 06:47:29 55° NNW 06:47:29 55° NNW
CENTAUR R/B 4.1 06:43:08 10° NW 06:48:18 36° WNW 06:48:18 36° WNW
Cosmos 2219 4.3 06:54:12 10° N 06:59:00 39° NE 06:59:00 39° NE
BREEZE-M DEB (TANK) 4.2 07:12:55 38° ENE 07:12:55 38° ENE 07:18:19 10° NE
Cosmos 2297 Rocket 3.2 07:06:09 10° N 07:11:27 40° ENE 07:11:45 40° ENE
SL-16 R/B 2.7 07:13:42 67° NNE 07:13:42 67° NNE 07:19:12 10° N
BREEZE M DEB (TANK) 4.3 07:11:50 68° WSW 07:13:06 80° NW 07:42:58 10° NE
ARIANE 5 R/B 4.3 07:14:00 10° NE 07:17:45 23° E 07:17:45 23° E
SJ 16-02 3.3 07:15:19 10° N 07:17:47 28° NNE 07:17:47 28° NNE
ADEOS II 2.9 07:19:51 10° NNE 07:24:11 47° ENE 07:24:11 47° ENE
CZ-2D R/B 3.3 07:29:17 10° N 07:32:35 33° NNW 07:32:35 33° NNW
Resurs 1-4 Rocket 3.3 07:31:24 10° N 07:34:47 32° NW 07:34:47 32° NW
Cosmos 1697 Rocket 3.2 07:38:46 53° NNW 07:38:46 53° NNW 07:43:26 10° N
Cosmos 1814 Rocket 4.3 07:38:34 64° NE 07:38:34 64° NE 07:43:11 10° NNE
Cosmos 2181 Rocket 4.2 07:31:35 10° N 07:38:00 70° E 07:38:57 61° SE
Cosmos 540 Rocket 3.8 07:46:55 62° N 07:46:55 62° N 07:51:13 10° NNE
IDEFIX/ARIANE 42P 4.5 07:42:16 10° NE 07:46:18 22° E 07:48:21 18° SE
Cosmos 2227 Rocket 2.2 07:41:50 10° NNW 07:47:31 76° ENE 07:47:50 73° ESE
SL-16 R/B 4.3 07:45:53 15° SE 07:48:11 19° E 07:51:58 10° ENE
FALCON 9 R/B 4.4 07:52:05 13° WNW 07:59:25 76° NNE 08:34:29 10° ESE
Cosmos 990 Rocket 4.0 07:58:45 10° NNW 08:03:22 66° NW 08:03:22 66° NW
Cosmos 841 Rocket 4.1 08:07:30 43° NW 08:07:30 43° NW 08:12:01 10° N
Cosmos 2285 Rocket 4.1 08:04:15 10° NNW 08:10:37 74° ENE 08:15:14 19° SSE
CZ-4C R/B 3.6 08:11:04 21° NW 08:11:15 21° NW 08:15:20 10° N
Cosmos-2242 4.5 08:09:56 10° NNW 08:12:04 26° NW 08:12:04 26° NW
Skynet4D Del rocket 3.5 08:14:26 64° SSW 08:14:48 66° S 08:20:13 10° E
STARLINK-1301 4.5 08:16:27 39° ENE 08:16:27 39° ENE 08:18:45 10° NE
Cosmos 2221 4.4 08:12:23 10° NNE 08:16:09 29° E 08:19:42 11° SE
STARLINK-1307 4.3 08:19:20 42° ENE 08:19:20 42° ENE 08:21:49 10° NE
STARLINK-1290 4.2 08:21:03 42° ENE 08:21:03 42° ENE 08:23:29 10° NE
Cosmos 2058 4.1 08:20:14 30° SE 08:21:32 39° E 08:25:27 10° NNE
STARLINK-1297 4.1 08:23:33 46° ENE 08:23:33 46° ENE 08:26:05 10° NE
STARLINK-1268 4.4 08:24:01 35° NE 08:24:01 35° NE 08:25:57 10° NE
STARLINK-1296 4.4 08:24:19 36° NE 08:24:19 36° NE 08:26:19 10° NE
STARLINK-1260 4.3 08:25:11 37° NE 08:25:11 37° NE 08:27:13 10° NE
STARLINK-1318 4.3 08:26:04 38° NE 08:26:04 38° NE 08:28:08 10° NE
STARLINK-1275 4.2 08:26:53 39° NE 08:26:53 39° NE 08:28:59 10° NE
STARLINK-62 4.3 08:27:05 37° E 08:27:05 37° E 08:29:20 10° NE
STARLINK-26 4.4 08:27:13 35° NNW 08:27:13 35° NNW 08:29:46 10° NNE
Meteor 1-27 4.3 08:21:03 10° N 08:26:36 73° E 08:30:26 21° SSE
STARLINK-1309 4.2 08:27:47 40° NE 08:27:47 40° NE 08:29:54 10° NE
STARLINK-1282 4.1 08:28:38 41° NE 08:28:38 41° NE 08:30:47 10° NE
STARLINK-34 4.1 08:28:54 40° ENE 08:28:54 40° ENE 08:31:15 10° NE
Meteor 1-28 Rocket 3.7 08:27:19 43° SE 08:28:15 58° ENE 08:31:58 10° N
STARLINK-1313 4.1 08:29:41 40° NNE 08:29:41 40° NNE 08:31:51 10° NE
USA 234 3.3 08:22:21 10° NE 08:28:53 74° SE 08:31:41 37° SSW
STARLINK-55 4.5 08:29:57 30° N 08:29:57 30° N 08:32:06 10° NNE
STARLINK-1029 4.5 08:29:52 30° E 08:29:52 30° E 08:32:09 10° ENE
STARLINK-1279 4.1 08:30:36 41° NNE 08:30:36 41° NNE 08:32:48 10° NE
STARLINK-1298 3.9 08:31:14 44° NNE 08:31:14 44° NNE 08:33:30 10° NE
Lacrosse 4 Rocket 2.4 08:26:45 10° N 08:30:51 46° ENE 08:34:50 10° SE
Cosmos 1980 Rocket 2.8 08:30:34 36° W 08:31:18 38° WNW 08:36:31 10° N
STARLINK-1293 3.9 08:32:08 45° NNE 08:32:08 45° NNE 08:34:26 10° NE
Nadezhda 3 Rocket 4.5 08:25:49 10° N 08:32:02 60° E 08:38:16 10° SSE
STARLINK-1255 3.8 08:33:49 47° NNE 08:33:49 47° NNE 08:36:10 10° NE
MSX 4.4 08:32:05 10° NNE 08:37:41 53° E 08:42:03 16° S
Cosmos 1892 3.1 08:37:02 40° SSE 08:38:07 59° E 08:41:53 10° NNE
STARLINK-1317 3.4 08:39:26 56° NW 08:39:26 56° NW 08:42:44 10° NNE
NOSS 2-1 (C) 3.0 08:39:06 66° SSE 08:39:21 70° ESE 08:42:42 10° NNE
STARLINK-1211 4.4 08:35:37 10° NNW 08:39:40 52° NE 08:43:42 10° SE
H-2A R/B 2.5 08:36:54 15° SSE 08:40:23 61° ENE 08:44:41 10° N
NOSS 2-1 (D) 2.8 08:43:28 71° S 08:43:48 83° ESE 08:47:11 10° NNE
STARLINK-64 4.2 08:43:34 35° SSE 08:44:05 37° SE 08:47:24 10° ENE
STARLINK-41 4.2 08:44:31 31° NNW 08:44:31 31° NNW 08:47:04 10° NNE
STARLINK-1245 4.1 08:40:33 10° NNW 08:44:38 59° NE 08:48:43 10° SE
STARLINK-1291 3.5 08:46:26 49° NW 08:46:26 49° NW 08:49:36 10° NNE
STARLINK-1264 3.5 08:48:47 46° NW 08:48:50 46° NW 08:52:02 10° NNE
STARLINK-1233 3.9 08:45:30 10° NW 08:49:37 67° NE 08:53:43 10° SE
STARLINK-1267 3.6 08:50:30 43° NW 08:50:38 43° NW 08:53:48 10° NNE
deb Chang Zheng 4 4.4 08:46:45 10° NNE 08:50:53 47° E 08:54:02 16° S
Cosmos 2150 Rocket 4.5 08:46:35 10° N 08:51:41 60° ENE 08:56:44 10° SSE
STARLINK-1272 3.7 08:52:10 41° WNW 08:52:22 41° NW 08:55:32 10° NNE
STARLINK-1207 3.7 08:53:52 38° WNW 08:54:09 39° NW 08:57:17 10° NNE
STARLINK-1204 3.7 08:50:28 10° NW 08:54:36 76° NE 08:58:43 10° SE
Cosmos 2297 Rocket 3.8 08:51:11 10° WNW 08:53:28 17° WNW 08:53:28 17° WNW
STARLINK-1266 3.8 08:55:37 36° WNW 08:55:58 37° NW 08:59:06 10° NNE
ARIANE 5 R/B 3.5 08:52:42 10° NNW 08:56:56 28° WNW 08:58:05 26° W
SL-16 R/B 4.5 08:58:48 10° WNW 08:58:48 10° WNW 08:58:59 10° WNW
STARLINK-1284 3.9 08:57:24 34° WNW 08:57:49 35° NW 09:00:54 10° NNE
STARLINK-1238 3.6 08:55:27 10° NW 08:59:35 86° NE 09:03:43 10° SE
STARLINK-1258 4.0 08:59:06 32° WNW 08:59:35 34° NW 09:02:40 10° NNE
STARLINK-1292 4.0 09:00:04 31° WNW 09:00:33 32° NW 09:03:32 10° NNE
Cosmos 2082 4.1 08:55:54 10° NW 09:01:05 39° WSW 09:04:18 21° SSW
Meteor 2-2 Rocket 4.4 08:55:17 10° N 09:01:21 88° E 09:07:20 10° S
Cosmos 2322 Rocket 2.2 08:59:25 21° SSW 09:03:19 83° ESE 09:08:57 10° NNE
STARLINK-1274 4.2 09:02:40 28° WNW 09:03:20 31° NW 09:06:20 10° NNE
ADEOS II 3.9 09:01:19 10° NW 09:04:08 15° WNW 09:05:08 14° W
STARLINK-1289 4.2 09:03:30 27° WNW 09:04:09 30° NW 09:07:05 10° NNE
STARLINK-1201 3.5 09:00:25 10° NW 09:04:34 83° SW 09:08:41 10° SE
CZ-2C R/B 3.5 09:00:11 10° NNE 09:05:09 45° E 09:10:05 10° S
STARLINK-1303 4.3 09:05:29 25° WNW 09:06:13 28° NW 09:09:06 10° NNE
Cosmos 2263 Rocket 3.5 09:02:12 10° N 09:07:28 41° ENE 09:12:40 10° SE
Cosmos 1869 3.1 09:03:40 10° NNW 09:07:30 67° W 09:10:10 19° S
STARLINK-1304 4.4 09:05:38 22° S 09:07:53 44° SE 09:11:49 10° NE
STARLINK-1286 4.3 09:06:32 23° SSW 09:08:48 48° SE 09:12:50 10° NE
STARLINK-1312 4.4 09:08:02 23° WNW 09:08:57 27° NW 09:11:52 10° NNE
Cosmos 1408 2.5 09:07:03 22° S 09:09:20 89° NW 09:13:02 10° N
In-Cosmos 22 Rocket 4.4 09:05:54 23° SSW 09:09:26 54° W 09:14:58 10° N
STARLINK-1206 3.5 09:05:24 10° NW 09:09:32 74° SW 09:13:38 10° SE
Cosmos 1400 Rocket 4.3 09:07:13 10° NW 09:10:09 21° W 09:10:09 21° W
Fermi 4.4 09:09:31 29° SW 09:10:57 40° S 09:14:46 10° E
Cosmos 2298 Rocket 3.9 09:09:03 10° NNW 09:14:19 70° WSW 09:19:35 10° S
STARLINK-1205 3.5 09:10:24 10° NW 09:14:29 64° SW 09:18:34 10° SSE
Cosmos 1842 Rocket 4.1 09:10:34 10° NNW 09:14:41 37° W 09:17:02 21° SW
STARLINK-1299 3.7 09:15:16 24° SSW 09:17:43 76° SE 09:21:53 10° NE
Cosmos 2218 Rocket 4.2 09:11:33 10° S 09:17:48 77° E 09:24:10 10° N
Landsat 5 3.7 09:15:03 10° S 09:19:25 59° W 09:23:53 10° NNW
STARLINK-1218 3.6 09:15:23 10° NW 09:19:27 56° SW 09:23:29 10° SSE
GPS 2-14 Rocket1 4.0 09:19:05 20° SSW 09:19:40 21° S 09:22:33 10° SE
Timation 1 Rocket 4.4 09:14:00 10° NNW 09:19:59 87° ENE 09:25:55 10° SSE
STARLINK-1306 3.8 09:19:02 21° SSW 09:21:46 71° SE 09:25:57 10° NE
Cosmos 1076 Rocket 4.4 09:21:19 21° SW 09:23:21 32° W 09:27:16 10° NNW
STARLINK-1254 3.7 09:20:24 10° NW 09:24:24 49° SW 09:28:24 10° SSE
CZ-2C R/B 4.1 09:21:32 10° NNW 09:24:30 23° WNW 09:25:49 19° WSW
STARLINK-58 4.5 09:23:21 18° W 09:24:45 25° NW 09:27:26 10° NNE
IDEFIX/ARIANE 42P 3.5 09:21:12 10° N 09:25:50 32° WNW 09:29:09 17° SW
STARLINK-1281 3.7 09:24:46 18° SSW 09:27:44 75° SE 09:31:52 10° NE
Cosmos 1959 Rocket 4.5 09:21:42 10° S 09:27:55 89° W 09:34:06 10° N
STARLINK-1231 3.9 09:25:26 10° NW 09:29:21 43° SW 09:33:17 10° SSE
ERS-2 3.7 09:29:51 17° WSW 09:30:03 17° W 09:32:30 10° NW
SL-16 R/B 2.7 09:27:46 16° SW 09:31:51 42° WNW 09:37:13 10° N
STARLINK-1310 3.6 09:29:34 17° SW 09:32:43 85° SE 09:36:51 10° NE
NOSS 2-1 (E) 4.4 09:31:37 16° W 09:33:24 24° WNW 09:36:13 10° N
Cosmos 1315 Rocket 3.5 09:29:54 10° NNW 09:33:25 33° W 09:36:56 10° SSW
CZ-4C R/B 4.1 09:31:40 17° SW 09:33:32 25° W 09:36:34 10° NW
SL-8 Rocket 4.1 09:27:33 10° SSW 09:33:48 63° W 09:40:03 10° N
Cosmos 1125 Rocket 3.4 09:28:56 10° NNW 09:34:09 86° WSW 09:39:21 10° SSE
STARLINK-1232 4.1 09:30:29 10° WNW 09:34:20 38° SW 09:38:10 10° SSE
Shenzhou-11 Module 2.7 09:35:27 17° W 09:36:54 31° NNW 09:39:10 10° NE
STARLINK-1319 3.6 09:34:20 15° SW 09:37:41 85° NW 09:41:49 10° NE
ALOS 4.3 09:34:02 10° NE 09:37:59 27° E 09:41:55 10° SSE
Meteor 2-12 Rocket 4.4 09:32:38 10° S 09:38:41 82° W 09:44:45 10° N
STARLINK-1208 4.2 09:35:33 10° WNW 09:39:17 33° SW 09:43:01 10° S
Cosmos 1825 2.3 09:36:03 10° SSW 09:39:42 51° W 09:43:21 10° N
Okean 3 Rocket 3.6 09:36:21 10° S 09:40:49 73° W 09:45:21 10° N
ADEOS 3.6 09:35:45 10° N 09:40:58 82° WNW 09:46:11 10° SSW
STARLINK-1277 3.6 09:39:06 14° SW 09:42:38 75° NW 09:46:46 10° NE
STARLINK-1271 4.4 09:40:36 10° WNW 09:44:13 30° SW 09:47:50 10° S
Cosmos 1484 Rocket 4.3 09:41:50 10° NNE 09:45:32 38° E 09:49:14 10° SSE
STARLINK-1276 3.7 09:43:54 12° SW 09:47:38 66° NW 09:51:45 10° NE
Cosmos 2333 Rocket 3.9 09:43:15 10° SSE 09:48:09 32° ESE 09:53:05 10° NE
ATLAS CENTAUR R/B 4.5 09:44:30 10° WNW 09:50:06 34° SW 10:02:59 10° S
STARLINK-1278 4.2 09:47:07 11° WSW 09:50:58 49° NW 09:55:05 10° NNE
STARLINK-1305 3.9 09:48:41 11° SW 09:52:36 58° NW 09:56:41 10° NNE
STARLINK-1280 4.2 09:48:53 11° WSW 09:52:49 47° NW 09:56:55 10° NNE
Cosmos 2221 4.2 09:50:51 10° NW 09:53:23 15° W 09:55:55 10° SW
Cosmos 2151 3.7 09:50:58 10° SSW 09:54:49 34° W 09:58:43 10° NNW
CZ-4B R/B 4.2 09:51:30 10° NNE 09:54:58 37° E 09:58:19 10° SSE
OFEQ 5 4.4 09:53:00 10° ENE 09:55:41 75° NNW 09:58:19 10° WSW
STARLINK-1262 4.0 09:53:34 10° WSW 09:57:36 51° NW 10:01:38 10° NNE
H-2A R/B 4.3 09:56:05 10° NNE 10:00:01 35° E 10:04:03 10° SSE
Cosmos 1408 Rocket 3.5 09:58:05 10° S 10:02:26 87° W 10:06:46 10° N
STARLINK-1300 4.2 09:58:35 10° WSW 10:02:34 46° NW 10:06:33 10° NNE
Cosmos 2322 4.1 09:57:01 10° S 10:02:40 70° ESE 10:08:21 10° NNE
Skynet4D Del rocket 3.6 10:01:38 10° W 10:07:12 71° S 10:12:31 10° ESE
FENGYUN 3A 4.2 10:02:14 10° NNE 10:07:36 63° E 10:12:57 10° S
Cosmos 2360 Rocket 2.5 10:02:13 10° SW 10:07:39 51° WNW 10:13:07 10° N
